Location: Dennis Manor
(64.8292°N, 147.5397°W)
Time: 17:37:51
(UTC+00:00)

Envisat - Pass Details

Date: 04 November 2020
Orbit: 764 x 766 km, 98.1° (Epoch: 25 November)

Event Time Altitude Azimuth Distance (km) Brightness Sun altitude
Rises 05:03:39 0° 235° (SW) 3,234 6.8 -23.5°
Reaches altitude 10° 05:07:52 10° 270° (W) 2,313 6.5 -23.9°
Maximum altitude 05:09:26 11° 288° (WNW) 2,225 6.4 -24.1°
Drops below altitude 10° 05:11:00 10° 306° (NW) 2,317 6.4 -24.3°
Sets 05:15:15 0° 340° (NNW) 3,249 6.7 -24.7°
